sat.trackr.live / text

‹ back to catalog

ONEWEB-0538

NORAD 56047 · 2023-043B

PAYLOAD ACTIVE UNKNOWN

§ Identity

Operator
Country
UK
Launch date
2023-03-26
Launch site
SRILR
Launch vehicle
Mass (kg)
RCS (m²)

Purposes: comms

External: N2YO · Heavens-Above · Gunter

§ Orbital elements

Epoch: 2026-05-25T05:41:32.335584Z

Period
109.37 min
Inclination
87.9107°
Eccentricity
0.0001849
Mean motion
13.16593051 rev/d
Perigee alt
1,196.4 km
Apogee alt
1,199.2 km
Semi-major
7,575.9 km
B*
3.9804e-4
RAAN
233.3303°
Arg perigee
106.9764°
Mean anomaly
253.1570°
Rev number
15,595

§ Raw data

ONEWEB-05381 56047U 23043B   26145.23717981  .00000165  00000+0  39804-3 0  99982 56047  87.9107 233.3303 0001849 106.9764 253.1570 13.16593051155950

JSON: /api/v1/satellites/56047 · /tle

For live sub-satellite position, see the globe view (requires WebGL).

§ Visibility from observer

Set your observer location to see the next 7 days of passes ≥ 10°. The values pass through the URL so the page stays shareable.

No JS? Fill the form by hand. The geolocation button needs JavaScript.